Regional Weather Roundup
Issued by NWS Sterling, VA

Home | Current Version | Previous Version | Text Only | Print | Product List | Glossary Off
Versions: 1 2 3 4 5 6 7 8 9 10 11 12 13 14 15 16 17 18 19 20 21 22 23 24 25 26 27

000
ASUS41 KLWX 262311
RWRLWX

REGIONAL WEATHER ROUNDUP
NATIONAL WEATHER SERVICE BALTIMORE MD/WASHINGTON DC
700 PM EDT WED APR 26 2017

Note: "FAIR" indicates few or no clouds below 12,000 feet
with no significant weather and/or obstructions to visibility.
 TC=TEMPERATURE CELSIUS

 * =Non NWS site. Station does not report precipitation (e.g. rain,
    snow, etc.), thunder, or fog.

DCZ001-MDZ009-015-VAZ040>042-051-053>054-270000-
WASHINGTON METRO

CITY           SKY/WX    TMP DP  RH WIND       PRES   REMARKS
WASHINGTON NAT MOCLDY    69  60  73 NE7       29.78R
DULLES         MOSUNNY   71  58  63 E7        29.78R
ANDREWS AFB    CLEAR     65  58  77 E7        29.79R
FT BELVOIR     CLEAR     69  58  66 CALM      29.78R
QUANTICO       MOCLDY    71  60  68 NE6       29.78R
COLLEGE PARK*  CLEAR     67  56  68 E5        29.79R
LEESBURG*      SUNNY     72  61  68 E5        29.79R
MANASSAS*        N/A     71  60  68 SE10      29.78R

$$

MDZ006>007-011-014-270000-
BALTIMORE METRO

CITY           SKY/WX    TMP DP  RH WIND       PRES   REMARKS
BWI AIRPORT    CLOUDY    66  59  78 CALM      29.79R
MD SCIENCE CTR   N/A     65  57  75 MISG      29.78S
MARTIN STATE   CLOUDY    64  63  94 CALM      29.81R
ANNAPOLIS      CLOUDY    63  60  90 SE3       29.79S
FORT MEADE*    CLOUDY    63  59  88 SE3       29.82R

$$

MDZ012-015-019>023-270000-
MARYLAND EASTERN SHORE

CITY           SKY/WX    TMP DP  RH WIND       PRES   REMARKS
OCEAN CITY     CLOUDY    55  54  96 S5        29.82R FOG
SALISBURY      MOCLDY    64  59  83 CALM      29.80S
BAY BRIDGE AP* CLOUDY    64  59  82 SE3       29.80R
CAMBRIDGE*     CLOUDY    64  59  82 CALM      29.80S
EASTON*        MOCLDY    64  57  77 CALM      29.83S

$$

MDZ017>025-270000-
SOUTHERN MARYLAND

CITY           SKY/WX    TMP DP  RH WIND       PRES   REMARKS
PATUXENT RIVER PTCLDY    64  60  87 SE5       29.79S
ST INIGOES     CLEAR     66  59  78 E5        29.79R
LEONARDTOWN*   CLEAR     63  57  82 E3        29.81S

$$

MDZ003>005-270000-
NORTH CENTRAL MARYLAND

CITY           SKY/WX    TMP DP  RH WIND       PRES   REMARKS
FREDERICK*     MOSUNNY   70  63  78 CALM      29.80R
HAGERSTOWN APT SUNNY     71  58  63 SE3       29.77R
WESTMINSTER*   CLOUDY    66  61  82 SE5       29.80R

$$

MDZ501>502-270000-
WESTERN MARYLAND

CITY           SKY/WX    TMP DP  RH WIND       PRES   REMARKS
OAKLAND*         N/A     70  52  52 SE6       29.81R
CUMBERLAND*    SUNNY     77  57  50 CALM      29.78R

$$

VAZ025>031-270000-
SHENANDOAH VALLEY

CITY           SKY/WX    TMP DP  RH WIND       PRES   REMARKS
WINCHESTER*    SUNNY     70  59  68 E3        29.77R
FRONT ROYAL*   SUNNY     73  61  64 CALM      29.75S
LURAY*         SUNNY     77  59  53 E3        29.76R
NEW MARKET*    SUNNY     75  61  61 CALM      29.73S
STAUNTON*      SUNNY     76  59  56 SE6       29.78R
WAYNESBORO*    SUNNY     75  60  59 SE9       29.78R

$$

WVZ021-048>050-054>055-270000-
EASTERN WEST VIRGINIA PANHANDLE

CITY           SKY/WX    TMP DP  RH WIND       PRES   REMARKS
MARTINSBURG    SUNNY     71  58  63 SE5       29.76R
PETERSBURG*    SUNNY     79  61  54 E3        29.74R

$$

VAZ036>039-050-270000-
CENTRAL FOOTHILLS

CITY           SKY/WX    TMP DP  RH WIND       PRES   REMARKS
CHARLOTTESVILL SUNNY     78  59  51 SE8       29.76R
CULPEPER*      SUNNY     76  61  60 CALM      29.78R
ORANGE*        SUNNY     73  59  60 CALM      29.77R
GORDONSVILLE*  PTSUNNY   75  61  60 SE3       29.76R
WARRENTON*     SUNNY     75  57  53 E7        29.77R

$$

VAZ055>057-270000-
NORTH AND CENTRAL PIEDMONT

CITY           SKY/WX    TMP DP  RH WIND       PRES   REMARKS
FREDERICKSBRG* CLEAR     74  62  65 SE7       29.77R
STAFFORD*      CLEAR     71  61  71 E3        29.81R

$$

NCZ024-NYZ072-PAZ021-071-VAZ022-071-270000-
OTHER REGIONAL OBSERVATIONS

CITY           SKY/WX    TMP DP  RH WIND       PRES   REMARKS
NEW YORK CITY  CLOUDY    59  57  93 CALM      29.82R FOG
PHILADELPHIA   CLOUDY    63  56  78 S5        29.79S
PITTSBURGH     PTSUNNY   77  57  50 SE10      29.69S
ROANOKE        SUNNY     78  61  55 SE12      29.78R
RICHMOND       PTCLDY    74  59  59 S5        29.78R
RALEIGH        MOSUNNY   78  63  59 SW12      29.80S

$$

ANZ530>537-270000-
MARINE OBSERVATIONS

STATION/POSITION TIME  TEMP    WIND        PRES
                       AIR SEA DIR/SP/G
                 (UTC) (F)     (DEG/KT/KT) (MB)
THOMAS PT LIGHT  2300   60 56  200/  5/  6   N/A
BALT KEY BRIDGE  2242   61     120/  7/  8 1008.6R
COVE POINT       2242   63     160/  2/  3 1009.5R
LEWISETTA        2242   62 62  120/  8/  8 1008.7R
SOLOMONS ISLAND  2242   61 60   90/  5/  6   N/A
PINEY POINT      2248          170/  7/  8   N/A

$$





USA.gov is the U.S. government's official web portal to all federal, state and local government web resources and services.